Weather History for Danbury, CT

Change the Weather History Date:

Sunday, February 24, 2013

  Actual Average Record
Temperature  
Mean Temperature 36 °F -  
Max Temperature 42 °F 42 °F 73 °F (1985)
Min Temperature 30 °F 24 °F 7 °F (2008)
Degree Days  
Heating Degree Days 29    
Moisture  
Dew Point 32 °F    
Average Humidity 84    
Maximum Humidity 93    
Minimum Humidity 70    
Precipitation  
Precipitation 0.01 in - - ()
Sea Level Pressure  
Sea Level Pressure 29.81 in    
Wind  
Wind Speed 4 mph (NW)    
Max Wind Speed 14 mph    
Max Gust Speed 21 mph    
Visibility 7 miles    
Events Rain , Snow    
Averages and records for this station are not official NWS values.
T = Trace of Precipitation, MM = Missing Value Source: NWS Daily Summary

Daily Weather History Graph

Daily Weather History Graph

Search for Another Location

Airport:

Trip Planner

Search our weather history database for the weather conditions in past years. The results will help you decide how hot, cold, wet, or windy it might be!

Date:

Astronomy

Feb. 24, 2013 Rise Set
Actual Time 6:35 AM EST 5:39 PM EST
Civil Twilight 6:07 AM EST 6:06 PM EST
Nautical Twilight 5:35 AM EST 6:39 PM EST
Astronomical Twilight 5:03 AM EST 7:11 PM EST
Moon 4:47 PM EST (2/24) 5:31 AM EST (2/24)
Length of Visible Light 11h 59m
Length of Day
11h 03m
Waxing Gibbous, 99% of the Moon is Illuminated
Feb 24
Waxing Gibbous
Feb 25
Full
Mar 4
Last Quarter
Mar 11
New
Mar 19
First Quarter

Hourly Weather History & Observations

Time (EST) Temp. Windchill Dew Point Humidity Pressure Visibility Wind Dir Wind Speed Gust Speed Precip Events Conditions
12:19 AM 33.8 °F 28.6 °F 32.0 °F 93% 29.82 in 3.0 mi ENE 5.8 mph - N/A   Overcast
12:53 AM 34.0 °F 31.0 °F 32.0 °F 92% 29.82 in 3.0 mi NE 3.5 mph - N/A   Overcast
1:53 AM 34.0 °F - 32.0 °F 92% 29.81 in 4.0 mi Calm Calm - N/A   Overcast
2:07 AM 35.6 °F - 32.0 °F 87% 29.81 in 4.0 mi Calm Calm - N/A   Overcast
2:26 AM 35.6 °F - 32.0 °F 87% 29.80 in 2.5 mi Calm Calm - N/A   Overcast
2:53 AM 35.1 °F - 32.0 °F 89% 29.80 in 2.0 mi Calm Calm - N/A   Overcast
3:53 AM 35.1 °F 32.2 °F 32.0 °F 89% 29.80 in 2.5 mi NW 3.5 mph - N/A   Overcast
4:02 AM 35.6 °F 32.8 °F 32.0 °F 87% 29.79 in 3.0 mi NW 3.5 mph - N/A   Overcast
4:53 AM 35.1 °F 31.0 °F 32.0 °F 89% 29.80 in 3.0 mi NW 4.6 mph - 0.00 in   Overcast
5:07 AM 35.6 °F 32.8 °F 32.0 °F 87% 29.78 in 2.5 mi NNW 3.5 mph - 0.00 in Rain Light Rain
5:15 AM 35.6 °F - 32.0 °F 87% 29.78 in 4.0 mi Calm Calm - 0.00 in Rain Light Rain
5:53 AM 35.1 °F - 32.0 °F 89% 29.79 in 7.0 mi Calm Calm - 0.00 in   Overcast
6:31 AM 35.6 °F - 32.0 °F 87% 29.76 in 10.0 mi Calm Calm - N/A   Overcast
6:53 AM 35.1 °F - 32.0 °F 89% 29.78 in 10.0 mi Calm Calm - N/A   Overcast
7:31 AM 35.6 °F - 32.0 °F 87% 29.76 in 10.0 mi Calm Calm - N/A   Overcast
7:53 AM 37.0 °F - 32.0 °F 82% 29.77 in 10.0 mi Calm Calm - N/A   Overcast
8:14 AM 37.4 °F 34.9 °F 33.8 °F 87% 29.75 in 10.0 mi NNW 3.5 mph - N/A   Overcast
8:53 AM 37.0 °F 34.5 °F 34.0 °F 89% 29.77 in 10.0 mi WNW 3.5 mph - N/A   Overcast
9:37 AM 37.4 °F 33.8 °F 33.8 °F 87% 29.76 in 10.0 mi WNW 4.6 mph - N/A   Overcast
9:53 AM 37.0 °F 34.5 °F 35.1 °F 93% 29.77 in 5.0 mi NW 3.5 mph - N/A   Overcast
10:36 AM 39.2 °F 35.0 °F 35.6 °F 87% 29.75 in 8.0 mi NNW 5.8 mph - N/A   Overcast
10:53 AM 39.9 °F 36.7 °F 35.1 °F 83% 29.77 in 10.0 mi NW 4.6 mph - N/A   Overcast
11:53 AM 39.9 °F 34.5 °F 36.0 °F 86% 29.76 in 9.0 mi NNW 8.1 mph - N/A   Overcast
12:44 PM 39.2 °F 33.0 °F 35.6 °F 87% 29.74 in 10.0 mi NNW 9.2 mph - 0.00 in   Overcast
12:53 PM 39.9 °F 36.7 °F 35.1 °F 83% 29.75 in 10.0 mi NW 4.6 mph - 0.00 in   Overcast
1:02 PM 39.2 °F 32.5 °F 35.6 °F 87% 29.74 in 10.0 mi North 10.4 mph - N/A   Overcast
1:53 PM 41.0 °F 33.5 °F 33.1 °F 73% 29.74 in 10.0 mi NNW 13.8 mph 20.7 mph N/A   Overcast
2:53 PM 42.1 °F 36.1 °F 33.1 °F 70% 29.75 in 10.0 mi NNW 10.4 mph 16.1 mph N/A   Overcast
3:44 PM 41.0 °F 35.8 °F 32.0 °F 70% 29.75 in 10.0 mi NNW 8.1 mph - N/A   Overcast
3:53 PM 39.9 °F 35.8 °F 32.0 °F 73% 29.76 in 10.0 mi NNW 5.8 mph - N/A   Overcast
4:50 PM 37.4 °F 30.3 °F 30.2 °F 75% 29.78 in 8.0 mi West 10.4 mph - 0.00 in Rain Light Rain
4:53 PM 37.9 °F 31.5 °F 30.0 °F 73% 29.79 in 9.0 mi West 9.2 mph - 0.00 in Rain Light Rain
5:43 PM 35.6 °F 29.9 °F 30.2 °F 81% 29.82 in 7.0 mi NNW 6.9 mph - 0.01 in   Overcast
5:53 PM 36.0 °F 29.6 °F 30.9 °F 82% 29.83 in 9.0 mi NW 8.1 mph - 0.01 in   Overcast
6:00 PM 35.6 °F 30.7 °F 30.2 °F 81% 29.83 in 8.0 mi NNW 5.8 mph - N/A   Overcast
6:53 PM 35.1 °F 27.4 °F 28.0 °F 76% 29.86 in 10.0 mi WNW 10.4 mph 18.4 mph N/A   Overcast
8:26 PM 32.0 °F 26.4 °F 28.4 °F 87% 29.90 in 2.0 mi NW 5.8 mph - 0.00 in Snow Light Snow
8:40 PM 32.0 °F 26.4 °F 28.4 °F 87% 29.91 in 3.0 mi WNW 5.8 mph - 0.00 in Snow Light Snow
8:51 PM 32.0 °F 26.4 °F 28.4 °F 87% 29.91 in 3.0 mi NW 5.8 mph - 0.00 in Snow Light Snow
8:53 PM 32.0 °F 25.6 °F 28.0 °F 85% 29.92 in 3.0 mi NW 6.9 mph - 0.00 in Snow Light Snow
9:34 PM 32.0 °F 25.6 °F 28.4 °F 87% 29.92 in 2.5 mi NW 6.9 mph - 0.00 in Snow Light Snow
9:53 PM 30.9 °F 26.2 °F 28.0 °F 89% 29.94 in 3.0 mi NW 4.6 mph - 0.00 in Snow Light Snow
10:53 PM 32.0 °F 28.7 °F 27.0 °F 82% 29.94 in 10.0 mi NW 3.5 mph - 0.00 in   Overcast
11:53 PM 32.0 °F 27.5 °F 25.0 °F 75% 29.96 in 10.0 mi NNW 4.6 mph - N/A   Overcast